Погода в Валдае

Россия / Новгородская область     57°58′48″N   33°14′48″E
темп.,
°C
ветер,
м/с
пор.,
м/с
влажн.,
%
обл.,
%
осадки,
мм/ч
давл.,
гПа
погр.,
м
24 сентября, пт
пт2400:00+6ююв4992100 0.0 1005627
03:00+4ююв41291100 0.0 1002648
06:00+6юв51185100 0.0 1000950
09:00+6юв5128053 0.0 999837
12:00+7юв51078100 0.0 999947
15:00+6юв51090100 0.3 10001036
18:00+6юв4991100 0.1 1001953
21:00+6юв41092100 0.2 1002765
25 сентября, сб
сб2500:00+7юв3993100 0.1 1003608
03:00+7юв3993100 0.1 1003553
06:00+7ююв3995100 0.2 1002601
09:00+7ююв3996100 0.5 1002650
12:00+8ю3896100 0.6 1001642
15:00+8ююз3996100 2.1 1001761
18:00+8юз2798100 1.2 1001459
21:00+8зюз2699100 5.2 1003422
26 сентября, вс
вс2600:00+8сз3898100 1.4 1004516
03:00+7зсз4996100 1.8 1007584
06:00+7зсз41098100 0.0 1009628
09:00+7зсз41097100 0.1 1010614
12:00+8сз41092100 0.3 1012954
15:00+8ссз51194100 1.4 1015839
18:00+8ссз41093100 0.3 1017723
21:00+7ссз399799 0.3 1020462
27 сентября, пн
пн2700:00+8ссз3797100 0.0 1021506
03:00+7с2698100 0.0 1023373
06:00+7ссв2698100 0.0 1025311
09:00+8ссв269489 0.0 1026305
12:00+11св347765 0.0 1027847
15:00+12св3465100 0.1 10281192
18:00+10всв3776100 0.1 1029455
21:00+8св2681100 0.1 1030225
28 сентября, вт
вт2800:00+7св278485 0.0 1031269
03:00+5всв249811 0.0 103287
06:00+6св259582 0.0 1032176
09:00+7всв2691100 0.0 1033260
12:00+9в2482100 0.0 1034441
15:00+11в226893 0.0 1033866
18:00+8в228322 0.0 103338
21:00+6в229218 0.0 103426